Race Coverage Navigation

TS # 29 / Yates Center, KS  2019

 


TS STATS
TS Distance 64.62 
Total Distance 1718.75 
Miles To Go 1351.53 
TS Climbing 1669 
Total Climbing
TS  Elevation
TS  Net Elevation 2650 
Map Filename Open Map 
Directions Filename  
Latitude 37.88 
Longitude -95.74 
Google Map  TimeStation Map 


TS Arrival Data
Arr Ord  #/Name Arrival DT TS Dst Avg This TS Avg Overall
 1 377 - Christoph Strasser  06/15/2019 21:14 64.62  18.91  17.09 
 2 279 - Marko Baloh  06/16/2019 12:07 64.62  14.58  14.88 
 3 288 - Dave Haase  06/16/2019 14:45 64.62  17.46  14.55 
 4 609 - Jakob Olsen  06/16/2019 18:00 64.62  14.58  14.13 
 5 617 - SOLO.kiwi (Craig Harper)  06/16/2019 21:37 64.62  15.09  13.71 
 6 529 - Isa Pulver  06/16/2019 23:03 64.62  12.47  13.54 
 7 329 - Peter Oyler  06/17/2019 4:14 64.62  14.05  13.06 
 8 612 - Markus K. Brandl  06/17/2019 8:17 64.62  6.53  12.64 
 9 622 - Thomas Odom-Team Kyle Pease Foundation  06/17/2019 9:30 64.62  7.37  12.52 
 10 367 - Daniela Genovesi  06/17/2019 10:01 64.62  16.02  12.46 
 11 416 - Leah Goldstein  06/17/2019 10:42 64.62  15.76  12.4 
 12 623 - Ultra Paka Racing Team (Daniel Polman)  06/17/2019 12:45 64.62  13.56  12.22 
 13 603 - Alan Bradley  06/17/2019 14:33 64.62  13.32  12.09 
 14 615 - Philipp Amhof  06/17/2019 16:41 64.62  16.78  11.9 
 15 611 - Marcelo Soares " MIXIRICA "  06/17/2019 19:34 64.62  15.7  11.67 
 16 604 - Chieko Ozawa  06/17/2019 20:58 64.62  10.62  11.54 
 17 559 - Team Martin RAAM 2019 (Martin Bergmeister)  06/17/2019 21:53 64.62  15.32  11.5 
 18 442 - Joe Barr  06/17/2019 22:58 64.62  16.43  11.42 
 19 411 - Geoff Brunner  06/17/2019 23:31 64.62  13.32  11.38 
 20 568 - Alexandra Meixner  06/18/2019 0:28 64.62  7.18  11.28 
 21 510 - John C. Tarlton  06/18/2019 0:57 64.62  11.75  11.27 
 22 610 - Kabir Rachure  06/18/2019 6:14 64.62  8.39  10.89 
 23 399 - Valerio Zamboni  06/18/2019 11:55 64.62  8.69  10.52 
 24 618 - GREGORY ROBINSON  06/18/2019 14:43 64.62  14.97  10.32 
 25 424 - Team i RON man Veterans supporting Veterans  06/18/2019 14:53 64.62  13.37  10.33 
 26 T411 - team alpha - tischlerei groemmer  06/18/2019 18:44 64.62  23.5  22.8 
 27 T800 - Backstedt Racing Project 14  06/18/2019 19:03 64.62  25.51  22.74 
 28 161 - Seana Hogan  06/18/2019 21:02 64.62  7.9  9.94 
 29 T404 - Gentlemen of speed  06/18/2019 22:55 64.62  22.28  21.57 
 30 T401 - Data Techniques powered by Networks Centre  06/18/2019 23:00 64.62  22.41  21.53 
 31 608 - Elin Starup  06/18/2019 23:47 64.62  10.34  9.78 
 32 T805 - Team Oceanside  06/19/2019 3:42 64.62  19.99  20.43 
 33 T201 - EAT WELL  06/19/2019 4:11 64.62  18.55  20.18 
 34 T807 - Team ZOE International  06/19/2019 4:54 64.62  21.07  20.15 
 35 T407 - Julian Becker   06/19/2019 5:16 64.62  19.78  19.99 
 36 T802 - Scorchers  06/19/2019 7:13 64.62  19.88  19.6 
 37 T416 - Team Rotary Raams Polio  06/19/2019 8:02 64.62  20.09  19.4 
 38 T804 - Team FSHD Skyland Trail  06/19/2019 8:56 64.62  21.66  19.23 
 39 T412 - Team Aspect  06/19/2019 8:56 64.62  17.08  19.19 
 40 T408 - Radeln-fuer-Kinder (Cycling-for-Kids)  06/19/2019 9:20 64.62  19.68  19.09 
 41 T400 - Cantastic4  06/19/2019 10:10 64.62  20.09  18.89 
 42 T808 - Antonia's Friends 2019  06/19/2019 11:06 64.62  21.3  18.79 
 43 T406 - Operation Walk Midwest  06/19/2019 11:14 64.62  19.78  18.69 
 44 T418 - The Opportunists  06/19/2019 13:58 64.62  20.51  18.19 
 45 T410 - Soap-Aid  06/19/2019 16:14 64.62  19.39  17.74 
 46 T414 - Brazil Nuts  06/19/2019 17:45 64.62  17.79  17.48 
 47 T405 - High Rollers  06/19/2019 18:26 64.62  21.91  17.33 
 48 T202 - Integra Medical - BAA Racing  06/19/2019 18:52 64.62  17.95  17.22 
 49 T803 - Team EndoPark  06/19/2019 19:00 64.62  20.96  17.28 
 50 T415 - TEAM FIRE VELO 935  06/19/2019 19:42 64.62  22.16  17.14 
 51 T206 - Project Linear Acceleration  06/19/2019 20:11 64.62  19.19  17 
 52 T403 - EKJ Denmark  06/19/2019 21:12 64.62  14.63  16.85 
 53 T204 - Lucan CRC  06/19/2019 21:15 64.62  19.88  16.82 
 54 T413 - TEAM BRASIL - SKIPPER  06/19/2019 21:44 64.62  21.91  16.79 
 55 T402 - EA/WFP RAAM Team  06/19/2019 22:40 64.62  18.64  16.61 
 56 T806 - Team SuperMarrow  06/19/2019 23:25 64.62  19.01  16.55 
 57 T801 - Mind Over Matter  06/20/2019 0:07 64.62  18.55  16.43 
 58 T417 - Team4RAAM 2019 powered by TGW Living Logistics  06/20/2019 2:12 64.62  16.78  16.1 
 59 T200 - AIR RELAX GoPro TEAM BRASIL  06/20/2019 2:52 64.62  16.93  15.93 
 60 T409 - Serpentine Golden Girls  06/20/2019 10:34 64.62  15.39  14.91 
 61 T203 - JPsDuo  06/20/2019 13:12 64.62  15.7  14.55 
 62 T207 - Team Life Time  06/20/2019 15:42 64.62  16.78  14.25 
 63 T205 - Prevent Breast Cancer powered by Endomag  06/20/2019 19:21 64.62  15.57  13.83 
 64 T210 - Bike Wine Team  06/20/2019 19:46 64.62  13.23  13.79